Regional Weather Roundup
Issued by NWS

Home | Current Version | Previous Version | Text Only | Print | Product List | Glossary Off
Versions: 1 2 3 4 5 6 7 8 9 10 11 12 13 14 15 16 17 18 19 20 21 22 23 24 25 26 27 28 29 30 31 32 33 34 35 36 37 38 39 40 41 42 43 44 45 46 47 48 49 50

000
ASUS45 KTFX 220204
RWRMT
MONTANA HOURLY WEATHER ROUNDUP
NATIONAL WEATHER SERVICE GREAT FALLS MT
804 PM MDT MON JUL 21 2014

NOTE: "FAIR" INDICATES FEW OR NO CLOUDS BELOW 12000 FEET WITH NO
SIGNIFICANT WEATHER AND/OR OBSTRUCTIONS TO VISIBILITY.

* THESE STATIONS ARE NOT UNDER NWS QUALITY CONTROL. THEY DO NOT
   REPORT WEATHER SUCH AS PRECIPITATION OR FOG.

MTZ001>007-043-220300-
WEST OF THE DIVIDE
CITY           SKY/WX    TMP DP  RH WIND       PRES   REMARKS
KALISPELL      CLEAR     73  43  34 SW7       29.99R
MISSOULA       PTCLDY    79  23  12 NW13      30.01R
BUTTE          MOCLDY    73  46  38 CALM      30.11R
MULLAN PASS    CLEAR     57  37  47 VRB3      30.17R
* ESSEX        N/A       64  44  48 SW4        N/A
* LINCOLN      N/A       77  36  23 W5G15      N/A
* LOOKOUT PASS N/A       64  41  43 NW1        N/A
* POLSON       N/A       74  35  24 SW2        N/A
* RONAN APT    PTCLDY    79  46  31 N/A        N/A
* SEELEY LAKE  N/A       76  37  24 N5G13      N/A
* THOMP F APT  CLEAR     69  46  44 SW7G16     N/A
* YAAK HILL    N/A       76  39  26 NW1        N/A
$$

MTZ008-052>055-220300-
SOUTHWEST MONTANA
CITY           SKY/WX    TMP DP  RH WIND       PRES   REMARKS
BOZEMAN        CLOUDY    72  55  55 N5        30.06R
DILLON         CLOUDY    70  46  42 SW10      30.08R
* THREE FORKS  CLOUDY    73  73 100 N/A        N/A
* BOULDER HILL N/A       69  43  39 N/A        N/A
* MONIDA PASS  N/A       72  41  33 W9         N/A
* RAYNOLDS PAS N/A       65  44  47 SE11G19    N/A
* WHITEHALL    N/A       71  56  59 E3G11      N/A
* WISE RIVER   N/A       72  45  38 W8G14      N/A
$$

MTZ009>010-012-014-046-048-049-054-220300-
EAST SLOPES AND CENTRAL MONTANA
CITY           SKY/WX    TMP DP  RH WIND       PRES   REMARKS
CUT BANK       PTCLDY    73  43  34 W8        30.03R
GREAT FALLS    CLEAR     79  39  24 NW9       30.00R
HELENA         PTCLDY    81  45  28 N8        30.00R
MALMSTROM AFB  CLEAR     79  36  21 NW9       30.01R
* DEARBORN     N/A       81  34  18 W6G16      N/A
* EAST GLACIER N/A       68  38  33 W9         N/A
* MONARCH      N/A       71  38  30 VRB9G17    N/A
* ROGERS PASS  N/A       67  48  51 N/A        N/A
* SAINT MARY   N/A       72  36  27 SW5G14     N/A
* SWEET GRASS  N/A       68  52  57 NE17G23    N/A
$$

MTZ011-013-016-021-035-040-045-047-050-051-220300-
NORTH CENTRAL MONTANA
CITY           SKY/WX    TMP DP  RH WIND       PRES   REMARKS
HAVRE          PTCLDY    79  52  39 N8        29.96R
LEWISTOWN      PTCLDY    73  59  62 SE5       30.04R
* CHESTER      N/A       77  52  42 NE4        N/A
* DENTON       N/A       78  52  40 SE4        N/A
* GEYSER       N/A       77  44  31 NW9G16     N/A
* JUDITH GAP   N/A       66  59  78 N/A        N/A
* LOMA         N/A       82  45  27 NW12       N/A
$$

MTZ017>020-022>027-061-062-220300-
NORTHEAST MONTANA
CITY           SKY/WX    TMP DP  RH WIND       PRES   REMARKS
GLASGOW        CLOUDY    79  52  39 CALM      29.95R
GLENDIVE       CLEAR     75  55  50 NE10      29.97R
JORDAN         CLOUDY    79  52  39 E5        29.97R
SIDNEY         CLEAR     73  61  66 N7        29.96S
WOLF POINT     CLOUDY    73  61  66 E7        29.96R
* BEAVER HILL  N/A       74  57  55 N10G15     N/A
* CIRCLE       N/A       75  62  64 NE4        N/A
* LINDSAY DVD  N/A       72  58  62 NE8        N/A
* NAVAJO       N/A       69  61  76 SE2        N/A
$$

MTZ028>042-056>058-220300-
SOUTHCENTRAL AND SOUTHEAST MONTANA
CITY           SKY/WX    TMP DP  RH WIND       PRES   REMARKS
BAKER          PTCLDY    77  55  47 N12       29.98R
BILLINGS       CLOUDY    70  54  57 NE8       30.05R
LIVINGSTON     CLOUDY    73  48  41 W8        30.07R
MILES CITY     PTCLDY    81  55  41 NE6       29.93R HI  81
* LAUREL APT   CLOUDY    70  50  49 NE6        N/A
* ROUNDUP APT  CLOUDY    64  57  78 N/A        N/A
* ALZADA       N/A       81  55  41 NW8        N/A   HI  81
* HYSHAM       N/A       67  54  63 N7G18      N/A
* LAME DEER    N/A       75  51  43 NW9        N/A
* REED POINT   N/A       71  55  57 E5         N/A
* ROSCOE HILL  N/A       65  47  52 W1         N/A
$$

REGIONAL REPORTS...DAKOTAS
CITY           SKY/WX    TMP DP  RH WIND       PRES   REMARKS
WILLISTON      MOCLDY    73  57  57 NE10      29.95R
DICKINSON      MOCLDY    66  61  84 N14       29.94R
CROSBY         CLOUDY    66  66 100 CALM      29.94S
TIOGA          CLEAR     66  66 100 NE8       29.98R
WATFORD CITY   CLEAR     70  63  79 NE6       29.93R
BISMARCK       CLOUDY    66  63  90 N15G20    29.87R
GRAND FORKS    TSTM      66  66 100 SW23G45   29.75R VSB 1 1/4
FARGO          TSTM      82  73  74 W36G45    29.75R HI  87
BUFFALO SD     CLEAR     75  63  66 NE20      29.89R
RAPID CITY     TSTM      79  57  47 N17       29.91R
$$

REGIONAL REPORTS...WYOMING/IDAHO/WASHINGTON
CITY           SKY/WX    TMP DP  RH WIND       PRES   REMARKS
GILLETTE       MOCLDY    73  52  48 NW6       30.02R
SHERIDAN       TSTM      72  57  59 NW15      30.06R
CODY           TSTM      75  41  30 W6G16     30.12F
YELLOWSTONE LA CLOUDY    54  48  80 NW3       30.37R
SALMON         MOCLDY    77  46  33 SW13G21   29.99R
MULLAN PASS    CLEAR     57  37  47 VRB3      30.17S
SAND POINT     MOCLDY    70  50  49 CALM      30.01S
SPOKANE        CLOUDY    75  36  24 SE3       29.99S

$$



USA.gov is the U.S. government's official web portal to all federal, state and local government web resources and services.